陶都论坛

 找回密码
 注册会员

QQ登录

只需一步,快速开始

收藏本版 (4) |订阅

『车行天下』 今日: 1 |主题: 10491|排名: 13 

版主: Lucifer, 圈哥
作者 回复/查看 最后发表
[4S店活动] 这篇文章值得你点开。 attach_img 宜兴利星奔驰4S店 2018-8-30 08640 宜兴利星奔驰4S店 2018-8-30 11:10
[4S店活动] Local Secrets | 米兰街头,为什么大牌都主动为 smart 让路? attach_img 宜兴利星奔驰4S店 2018-8-30 05763 宜兴利星奔驰4S店 2018-8-30 11:05
[4S店活动] 敢来这里打卡?先亮出你的真面目! attach_img 宜兴利星奔驰4S店 2018-8-30 03880 宜兴利星奔驰4S店 2018-8-30 11:00
[新车介绍] 售价25.97-39.97万元 新豪华运动SUV 凯迪拉克XT4燃情上市 luseafer 2018-8-30 07647 luseafer 2018-8-30 10:55
[4S店活动] 巅峰对决,无限量开启! attach_img 宜兴利星奔驰4S店 2018-8-30 03587 宜兴利星奔驰4S店 2018-8-30 10:52
[新车介绍] “宜兴天汇”凯迪拉克XT4上市-欢迎预定 luseafer 2018-8-30 05634 luseafer 2018-8-30 10:46
[新车介绍] 售28.88-39.58万元 国产捷豹E-PACE上市 attach_img 宜兴路德行4S店 2018-8-30 05277 宜兴路德行4S店 2018-8-30 10:41
[新车介绍] 1天后新一代福克斯售价公布 attach_img 宜兴福特4S店 2018-8-30 04464 宜兴福特4S店 2018-8-30 09:46
[4S店活动] 速度,是全球通用语言 attach_img 宜兴利星奔驰4S店 2018-8-30 03023 宜兴利星奔驰4S店 2018-8-30 09:39
[4S店活动] 开学就要用新的|宜兴利星车主们真的不进来看看吗? attach_img 宜兴利星奔驰4S店 2018-8-30 03030 宜兴利星奔驰4S店 2018-8-30 09:11
[4S店活动] 给你一个和大佬们面对面的机会 attach_img 宜兴利星奔驰4S店 2018-8-29 06593 宜兴利星奔驰4S店 2018-8-29 14:05
[4S店活动] 【9.1】环科园利星奔驰缤纷开学季,购车有好礼! attach_img 宜兴利星奔驰4S店 2018-8-29 04810 宜兴利星奔驰4S店 2018-8-29 09:47
[汽车杂谈] 【宜兴福特】秒懂爱车 踩油门踩到脚酸腿麻怎么办! 宜兴福特4S店 2018-8-29 03041 宜兴福特4S店 2018-8-29 09:21
[汽车杂谈] 【宜兴福特】哇塞,这个弯道写了Focus的名字! 宜兴福特4S店 2018-8-28 02239 宜兴福特4S店 2018-8-28 13:49
[新车介绍] 新一代福克斯即将来袭 attach_img 宜兴福特4S店 2018-8-28 02633 宜兴福特4S店 2018-8-28 13:29
[新车介绍] 雪佛兰沃兰多以创新互联科技打造出行新体验 attach_img 宜兴汇通 2018-8-28 03556 宜兴汇通 2018-8-28 09:02
[4S店活动] 荣放自驾游安吉 attach_img 吃橘子的兔子 2018-8-27 04867 吃橘子的兔子 2018-8-27 14:07
[汽车杂谈] 【宜兴福特】未来的高端生活 其实就在你身边 宜兴福特4S店 2018-8-26 03631 宜兴福特4S店 2018-8-26 13:57
[4S店活动] 【宜兴福特】8月最后一波福利,安排上了 宜兴福特4S店 2018-8-25 06054 宜兴福特4S店 2018-8-25 17:41
[新车介绍] 豹力!美学!平衡! attach_img 宜兴路德行4S店 2018-8-24 25501 宜兴路德行4S店 2018-8-25 16:41
[新车介绍] 满满英伦风,新能源标杆捷豹I-PACE attach_img 宜兴路德行4S店 2018-8-25 04430 宜兴路德行4S店 2018-8-25 11:08
[新车介绍] 【宜兴君爵】除了“蚂蚁” 0.2s变身超级英雄的还有TA 宜兴君爵4S店 2018-8-25 03792 宜兴君爵4S店 2018-8-25 10:57
[4S店活动] 【宜兴君爵】月末冲量享钜惠 开学Jeep有好礼 宜兴君爵4S店 2018-8-25 03281 宜兴君爵4S店 2018-8-25 10:54
[新车介绍] 7万元高品质SUV 哈弗H2s风尚/智尚型惊爆上市 新人帖 attach_img 口合口合 2018-8-24 06719 口合口合 2018-8-24 16:14
[车族活动] 荣放自驾游活动圆满成功 新人帖 attach_img 吃橘子的兔子 2018-8-24 03989 吃橘子的兔子 2018-8-24 11:15
[街拍炫车] 彩贴坊出品:我们大宜兴 首台粉猪 彩贴坊欢妹 2018-8-24 07396 彩贴坊欢妹 2018-8-24 08:41
[4S店活动] 【宜兴福特】这skr你想象不到的福特商城,赶紧来探索吧! attach_img 宜兴福特4S店 2018-8-23 04628 宜兴福特4S店 2018-8-23 20:08
[新车介绍] 全新ES丨追逐激情,亦不忘拥抱自然 attach_img 2008嘟嘟 2018-8-23 05453 2008嘟嘟 2018-8-23 10:07
[汽车杂谈] 为什么人生的第一部车,都选C-HR! 广汽丰田轸村店 2018-8-23 07137 广汽丰田轸村店 2018-8-23 09:21
[4S店活动] 【宜兴福特】听闻这篇推文表白有方 宜兴福特4S店 2018-8-19 013258 宜兴福特4S店 2018-8-19 10:48
[汽车杂谈] 为什么说这是一台和十二星座都很搭的SUV attach_img 宜兴福特4S店 2018-8-19 08253 宜兴福特4S店 2018-8-19 10:46
[4S店活动] 广汽丰田8.19深度试驾体验营 宜兴站 广汽丰田轸村店 2018-8-17 013683 广汽丰田轸村店 2018-8-17 15:08
[4S店活动] 【相惠七夕】818宜兴利星“包”您满意! attach_img 宜兴利星奔驰4S店 2018-8-16 013335 宜兴利星奔驰4S店 2018-8-16 15:26
[4S店活动] 双保联动——优惠升级 attach_img 沃尔沃宜兴沃邦 2018-8-16 09145 沃尔沃宜兴沃邦 2018-8-16 11:02
[4S店活动] 驭见沃,购心动】818沃尔沃东区发烧购车节 attach_img 沃尔沃宜兴沃邦 2018-8-15 018190 沃尔沃宜兴沃邦 2018-8-15 14:56
[4S店活动] 【宜兴君爵 活动】 七夕不鹊桥 相聚享豪礼 宜兴君爵4S店 2018-8-15 07790 宜兴君爵4S店 2018-8-15 11:37
[汽车杂谈] 恒大成立FF中国总部 全面负责中国业务 attach_img 韩流风 2018-8-14 012865 韩流风 2018-8-14 21:32
[4S店活动] 广汽丰田C-HR到店上市 “潮流新物种”开启新玩法 attach_img 韩流风 2018-8-13 016370 韩流风 2018-8-13 12:08
[4S店活动] 每个人都和我说:你不一样 attach_img 宜兴利星奔驰4S店 2018-8-13 08704 宜兴利星奔驰4S店 2018-8-13 10:45
[4S店活动] 任时光荏苒,唯传奇永恒 attach_img 宜兴利星奔驰4S店 2018-8-13 05443 宜兴利星奔驰4S店 2018-8-13 10:07
下一页 »

快速发帖

还可输入 80 个字符
您需要登录后才可以发帖 登录 | 注册会员

本版积分规则

Archiver|关于我们|陶都论坛 ( ICPB2-20120265 ICP11066580-2 )

GMT+8, 2018-10-21 19:06 , Processed in 0.015626 second(s), 4 queries , Gzip On, Yac On.

Powered by Discuz! X3.4

© 2001-2017 Comsenz Inc.

返回顶部 返回版块